[[{"header":{"parameterUnit":"m.s-1","parameterCategory":1,"la1":30.2991,"la2":30.254,"lo1":-89.0895,"lo2":-89.0444,"dy":0.0017,"dx":0.0017,"nx":28,"ny":28,"refTime":"2024-08-28T03:00:00:Z","depth":0,"parameterNumber":2,"parameterNumberName":"U-component_of_WINDS"},"data":[0,0,0,0,0,0,0,0,0,0,0,0,0,0,0,0,0,0,0,0,0,0,0,0,0,0,0,0,0,0,0,0,0,0,0,0,0,0,0,0,0,0,0,0,0,0,0,0,0,0,0,0,0,0,0,0,0,0,-3.6671,-3.6673,0,-3.6817,-3.6819,-3.682,-3.6832,-3.6831,-3.6829,-3.6828,-3.6974,-3.6979,-3.6984,0,0,0,0,0,0,0,0,0,0,0,0,0,-3.6402,-3.6407,-3.6671,-3.6673,-3.6675,-3.6817,-3.6819,-3.6821,-3.6833,-3.6831,-3.6829,-3.6827,-3.6972,-3.6978,-3.6985,0,0,0,0,0,0,0,0,0,0,0,0,0,-3.653,-3.6408,-3.6671,-3.6698,-3.6702,-3.6816,-3.6819,-3.6821,-3.6833,-3.6831,-3.6828,-3.6826,-3.697,-3.6978,-3.6985,-3.7082,0,0,-3.701,-3.7013,0,0,0,0,0,0,0,0,-3.6523,-3.654,-3.6692,-3.6696,-3.6701,-3.6804,-3.6777,-3.6909,-3.6834,-3.6783,-3.6828,-3.6825,-3.6919,-3.6931,-3.6963,-3.7089,-3.7095,-3.7011,-3.7016,-3.7019,-3.7021,0,0,0,0,0,0,0,-3.6514,-3.6534,-3.6729,-3.6694,-3.67,-3.6702,-3.6718,-3.6802,-3.6862,-3.6787,-3.6789,-3.6806,-3.6921,-3.6956,-3.6967,-3.7097,-3.701,-3.7018,-3.7023,-3.7026,-3.731,-3.7312,0,0,0,0,0,0,-3.65,-3.6526,-3.6724,-3.6733,-3.6604,-3.6709,-3.6727,-3.6773,-3.6861,-3.6873,-3.6808,-3.6806,-3.6943,-3.6957,-3.6972,-3.709,-3.7019,-3.7026,-3.7031,-3.7307,-3.731,-3.7313,0,0,0,0,0,0,-3.6495,-3.6518,-3.6718,-3.663,-3.6656,-3.6716,-3.6769,-3.6777,-3.6812,-3.6877,-3.6887,-3.6832,-3.6942,-3.6961,-3.7055,-3.7095,-3.703,-3.7037,-3.7304,-3.7308,-3.7312,-3.7328,0,0,0,0,0,0,-3.6487,-3.6516,-3.6553,-3.6631,-3.6661,-3.6799,-3.6771,-3.6782,-3.6826,-3.6825,-3.6903,-3.6913,-3.6941,-3.7043,-3.7063,-3.7105,-3.7044,-3.73,-3.7306,-3.7311,-3.7324,-3.7332,-3.7339,0,0,0,0,0,-3.6477,-3.6551,-3.6555,-3.6579,-3.6709,-3.6801,-3.6818,-3.685,-3.683,-3.6867,-3.6909,-3.6911,-3.7089,-3.7052,-3.7075,-3.712,-3.7298,-3.7304,-3.731,-3.732,-3.733,-3.7339,0,0,0,0,0,0,-3.6474,-3.6561,-3.6567,-3.6668,-3.6728,-3.6803,-3.6851,-3.6859,-3.6925,-3.6921,-3.6957,-3.6974,-3.7067,-3.7104,-3.7062,-3.7219,-3.7191,-3.7202,-3.7191,-3.7201,-3.7208,-3.7196,-3.705,0,0,0,0,0,-3.6486,-3.6555,-3.6627,-3.6709,-3.6739,-3.6791,-3.6832,-3.6852,-3.6914,-3.6939,-3.6987,-3.7047,-3.7117,-3.7161,-3.7229,-3.733,-3.7347,-3.7373,-3.7381,-3.7386,-3.7394,-3.7451,-3.7463,-3.7334,-3.7333,-3.7333,0,0,-3.6509,-3.6566,-3.6606,-3.671,-3.6758,-3.6828,-3.6811,-3.6885,-3.6937,-3.695,-3.7041,-3.708,-3.7149,-3.7247,-3.7293,-3.728,-3.7435,-3.7394,-3.7398,-3.7403,-3.7458,-3.747,-3.7481,-3.7338,-3.7337,-3.7336,0,0,-3.6588,-3.6638,-3.6712,-3.6761,-3.6835,-3.687,-3.6888,-3.6963,-3.6989,-3.7083,-3.7094,-3.7156,-3.7275,-3.7324,-3.7364,-3.7464,-3.7468,-3.7486,-3.7523,-3.7578,-3.7588,-3.7597,-3.7631,-3.7643,-3.7494,-3.7494,-3.7494,0,-3.6607,-3.6713,-3.6749,-3.6823,-3.6868,-3.6886,-3.6961,-3.7007,-3.7098,-3.7129,-3.7115,-3.7265,-3.7313,-3.7423,-3.7447,-3.748,-3.7501,-3.7475,-3.7584,-3.7593,-3.7602,-3.7635,-3.7648,-3.7496,-3.7495,-3.7495,-3.7495,0,-3.6733,-3.6806,-3.6858,-3.6947,-3.6999,-3.7073,-3.7119,-3.7167,-3.7184,-3.7219,-3.7314,-3.7373,-3.7453,-3.7481,-3.7497,-3.7594,-3.7584,-3.7577,-3.7548,-3.7616,-3.7647,-3.766,-3.7498,-3.7497,-3.7497,-3.7496,0,0,-3.6809,-3.692,-3.6938,-3.6979,-3.7064,-3.7121,-3.7197,-3.7276,-3.7316,-3.738,-3.7443,-3.7545,-3.754,-3.7585,-3.7608,-3.7656,-3.773,-3.7643,-3.7645,-3.7655,-3.7839,-3.7842,-3.7856,-3.7735,-3.7737,-3.774,-3.7833,0,-3.6895,-3.7031,-3.7066,-3.7181,-3.7249,-3.7268,-3.7334,-3.7393,-3.7429,-3.7492,-3.7532,-3.7603,-3.7591,-3.7619,-3.7668,-3.7711,-3.7767,-3.7705,-3.7792,-3.7795,-3.7771,-3.7873,-3.7876,-3.7961,-3.7845,-3.7848,-3.7849,0,-3.7013,-3.708,-3.7202,-3.7279,-3.7309,-3.7367,-3.7444,-3.7504,-3.7572,-3.7595,-3.7648,-3.7666,-3.7745,-3.7716,-3.7825,-3.7782,-3.7821,-3.7848,-3.7852,-3.7859,-3.7824,-3.788,-3.7989,-3.8001,-3.7869,-3.7868,-3.7866,0,-3.7054,-3.7176,-3.7265,-3.73,-3.7392,-3.7432,-3.7473,-3.7538,-3.7584,-3.7651,-3.7681,-3.7756,-3.7797,-3.7854,-3.7892,-3.7868,-3.7998,-3.7972,-3.8018,-3.8017,-3.8042,-3.8039,-3.8156,-3.8071,-3.8071,-3.8071,-3.8071,0,-3.7145,-3.7218,-3.7285,-3.7339,-3.7422,-3.7463,-3.7544,-3.7584,-3.7643,-3.7705,-3.7727,-3.7785,-3.7833,-3.7897,-3.7928,-3.8013,-3.8032,-3.8052,-3.8059,-3.8048,-3.8046,-3.8072,-3.8066,-3.8074,-3.8074,-3.8073,-3.8072,0,-3.7203,-3.7251,-3.7349,-3.7429,-3.7451,-3.7508,-3.7577,-3.763,-3.7669,-3.7747,-3.7768,-3.7828,-3.7905,-3.795,-3.8047,-3.8068,-3.8162,-3.8167,-3.8139,-3.8141,-3.8184,-3.8178,-3.8319,-3.8339,-3.8243,-3.8244,-3.8245,0,-3.7256,-3.7313,-3.7401,-3.7444,-3.7485,-3.7556,-3.7603,-3.7647,-3.7696,-3.7778,-3.7821,-3.79,-3.7965,-3.8088,-3.8139,-3.8214,-3.8219,-3.8264,-3.823,-3.8219,-3.8218,-3.8213,-3.8218,-3.8268,-3.8269,-3.827,-3.827,0,-3.7345,-3.7366,-3.7434,-3.7512,-3.7568,-3.7631,-3.7693,-3.7728,-3.7782,-3.7835,-3.7915,-3.7966,-3.8066,-3.8144,-3.8223,-3.8264,-3.8276,-3.8281,-3.8295,-3.8284,-3.8264,-3.8274,-3.8151,-3.8277,-3.8276,-3.8276,-3.8275,-3.8275,-3.7401,-3.7453,-3.7522,-3.7598,-3.765,-3.7708,-3.7762,-3.7809,-3.7876,-3.7961,-3.7984,-3.8067,-3.8135,-3.8243,-3.8286,-3.8352,-3.8344,-3.8365,-3.837,-3.8374,-3.8374,-3.8257,-3.8367,-3.8367,-3.8367,-3.8367,-3.8366,0,-3.7489,-3.7536,-3.7605,-3.7692,-3.7752,-3.7761,-3.7831,-3.7879,-3.7953,-3.8016,-3.808,-3.8172,-3.8248,-3.8307,-3.8385,-3.8426,-3.8434,-3.8445,-3.8441,-3.845,-3.8377,-3.8356,-3.8438,-3.8438,-3.8438,-3.8438,-3.8438,-3.8438,-3.7541,-3.7629,-3.7659,-3.7773,-3.782,-3.7902,-3.7941,-3.7995,-3.8045,-3.8148,-3.8211,-3.825,-3.8312,-3.8395,-3.8465,-3.848,-3.8507,-3.8517,-3.8533,-3.8463,-3.8455,-3.8448,-3.8428,-3.8523,-3.8523,-3.86,-3.8601,-3.8601]},{"header":{"parameterUnit":"m.s-1","parameterCategory":1,"la1":30.2991,"la2":30.254,"lo1":-89.0895,"lo2":-89.0444,"dy":0.0017,"dx":0.0017,"nx":28,"ny":28,"refTime":"2024-08-28T03:00:00:Z","depth":0,"parameterNumber":3,"parameterNumberName":"V-component_of_WINDS"},"data":[0,0,0,0,0,0,0,0,0,0,0,0,0,0,0,0,0,0,0,0,0,0,0,0,0,0,0,0,0,0,0,0,0,0,0,0,0,0,0,0,0,0,0,0,0,0,0,0,0,0,0,0,0,0,0,0,0,0,3.2506,3.2505,0,3.2447,3.2446,3.2445,3.2428,3.2428,3.2428,3.2429,3.2356,3.2354,3.2352,0,0,0,0,0,0,0,0,0,0,0,0,0,3.2595,3.2593,3.2506,3.2505,3.2505,3.2447,3.2446,3.2445,3.2428,3.2428,3.2428,3.2429,3.2357,3.2354,3.2351,0,0,0,0,0,0,0,0,0,0,0,0,0,3.2547,3.2593,3.2506,3.2489,3.2487,3.2447,3.2446,3.2445,3.2427,3.2428,3.2428,3.2429,3.2358,3.2354,3.2351,3.232,0,0,3.2341,3.2339,0,0,0,0,0,0,0,0,3.255,3.2544,3.2492,3.249,3.2488,3.2445,3.245,3.2402,3.2427,3.245,3.2429,3.2429,3.2384,3.2379,3.2366,3.2316,3.2313,3.234,3.2338,3.2337,3.2336,0,0,0,0,0,0,0,3.2553,3.2547,3.2482,3.2492,3.2489,3.2481,3.2475,3.2441,3.2414,3.2448,3.2446,3.244,3.2383,3.237,3.2364,3.2312,3.234,3.2337,3.2335,3.2334,3.2233,3.2233,0,0,0,0,0,0,3.2561,3.2549,3.2484,3.248,3.2521,3.2479,3.2472,3.2458,3.2415,3.2409,3.244,3.244,3.2375,3.2368,3.2362,3.2322,3.2337,3.2334,3.2332,3.2234,3.2233,3.2233,0,0,0,0,0,0,3.2563,3.2555,3.2486,3.2515,3.2505,3.2477,3.2461,3.2457,3.2443,3.2409,3.2403,3.2432,3.2375,3.2367,3.2331,3.232,3.2332,3.2329,3.2235,3.2234,3.2233,3.2244,0,0,0,0,0,0,3.2566,3.2556,3.2547,3.2515,3.2504,3.246,3.2461,3.2455,3.2439,3.2438,3.24,3.2394,3.2375,3.2336,3.2328,3.2315,3.2326,3.2236,3.2234,3.2233,3.2244,3.2243,3.2242,0,0,0,0,0,3.2569,3.2549,3.2546,3.2538,3.2492,3.246,3.2453,3.2435,3.2438,3.2426,3.2405,3.2395,3.2323,3.2333,3.2323,3.2309,3.2236,3.2235,3.2233,3.2245,3.2243,3.2242,0,0,0,0,0,0,3.2576,3.2545,3.2541,3.2511,3.2489,3.2457,3.2442,3.2434,3.2408,3.2407,3.2383,3.2374,3.2341,3.2321,3.2333,3.2277,3.2279,3.2275,3.2291,3.2289,3.2288,3.2293,3.2324,0,0,0,0,0,3.2575,3.2555,3.2527,3.2504,3.2493,3.247,3.2455,3.2444,3.2417,3.2407,3.2382,3.2354,3.2325,3.2306,3.2277,3.2242,3.2232,3.2227,3.2226,3.2226,3.2222,3.2201,3.2199,3.2228,3.2228,3.2228,0,0,3.2571,3.2552,3.254,3.2505,3.2486,3.2463,3.2461,3.2436,3.2418,3.2401,3.2368,3.2349,3.2316,3.228,3.2263,3.2263,3.2213,3.2224,3.2224,3.2221,3.2199,3.2197,3.2194,3.2227,3.2227,3.2227,0,0,3.2552,3.2536,3.2515,3.2497,3.2471,3.2455,3.245,3.242,3.2408,3.2375,3.2362,3.2338,3.2289,3.2266,3.2248,3.2222,3.2211,3.2213,3.2207,3.2187,3.2185,3.2182,3.2172,3.2169,3.221,3.221,3.221,0,3.255,3.2518,3.2504,3.2481,3.2465,3.2454,3.243,3.2412,3.2376,3.2363,3.2365,3.2304,3.2281,3.224,3.2234,3.222,3.2211,3.2216,3.2187,3.2184,3.2182,3.2172,3.2168,3.221,3.221,3.221,3.221,0,3.2516,3.2493,3.2479,3.2449,3.2431,3.2408,3.2388,3.2371,3.2361,3.2345,3.231,3.2283,3.2249,3.2238,3.2227,3.2195,3.2196,3.2192,3.2194,3.218,3.217,3.2166,3.2211,3.2211,3.2211,3.221,0,0,3.2498,3.2463,3.2457,3.2443,3.2414,3.2394,3.237,3.2341,3.2326,3.2301,3.2278,3.2238,3.2235,3.2215,3.2201,3.2183,3.2164,3.2182,3.218,3.2178,3.2125,3.2127,3.2123,3.2157,3.2157,3.2156,3.2128,0,3.2474,3.2434,3.2422,3.2386,3.2365,3.2354,3.2332,3.231,3.2294,3.2271,3.2251,3.2223,3.2223,3.221,3.2193,3.217,3.2152,3.2172,3.2132,3.2131,3.214,3.2118,3.212,3.2095,3.2124,3.2123,3.2123,0,3.2441,3.2421,3.2385,3.2359,3.2349,3.233,3.2302,3.2281,3.2255,3.2244,3.2223,3.2211,3.2181,3.2186,3.2144,3.2157,3.214,3.2127,3.2125,3.2119,3.2125,3.2111,3.2087,3.2082,3.2117,3.2117,3.2117,0,3.2431,3.2394,3.2368,3.2356,3.2325,3.2312,3.2298,3.2273,3.2256,3.223,3.2219,3.2189,3.2172,3.2147,3.2126,3.2132,3.2085,3.2088,3.2073,3.2073,3.2062,3.2063,3.2034,3.2053,3.2054,3.2054,3.2054,0,3.2406,3.2384,3.2363,3.2347,3.2321,3.2306,3.228,3.2264,3.2242,3.222,3.2207,3.2186,3.2161,3.2135,3.2118,3.2085,3.2077,3.2066,3.2061,3.2066,3.2068,3.2053,3.2054,3.2053,3.2053,3.2053,3.2053,0,3.239,3.2375,3.2346,3.232,3.2313,3.2295,3.2271,3.2253,3.2238,3.2211,3.2203,3.2177,3.2147,3.2125,3.2084,3.2072,3.2036,3.2032,3.2047,3.2044,3.203,3.2031,3.199,3.1983,3.2009,3.2008,3.2008,0,3.2374,3.2357,3.2331,3.2318,3.2305,3.2282,3.2267,3.225,3.2233,3.2203,3.2188,3.2158,3.2133,3.2084,3.2059,3.2028,3.2022,3.201,3.2017,3.2023,3.202,3.2021,3.2019,3.2008,3.2008,3.2008,3.2008,0,3.2347,3.2341,3.2321,3.2298,3.2281,3.2261,3.224,3.2229,3.2208,3.2189,3.2161,3.2142,3.2103,3.2071,3.2038,3.2019,3.2009,3.2006,3.2001,3.2005,3.2014,3.2008,3.2043,3.2007,3.2007,3.2007,3.2007,3.2007,3.233,3.2315,3.2294,3.2272,3.2256,3.2237,3.222,3.2204,3.2181,3.215,3.2141,3.2111,3.2084,3.2039,3.202,3.1994,3.1993,3.1986,3.1983,3.1981,3.1981,3.202,3.1987,3.1987,3.1987,3.1987,3.1987,0,3.2301,3.2289,3.2268,3.2242,3.2224,3.2221,3.2198,3.2182,3.2157,3.2135,3.2112,3.2078,3.2048,3.2023,3.1991,3.1975,3.1969,3.1967,3.1967,3.1962,3.1984,3.1991,3.1972,3.1972,3.1972,3.1972,3.1972,3.1972,3.2285,3.2259,3.2251,3.2216,3.2202,3.2176,3.2163,3.2145,3.2128,3.2092,3.2069,3.2054,3.2029,3.1996,3.1968,3.1961,3.1949,3.1948,3.1939,3.1959,3.1961,3.1963,3.1969,3.1946,3.1946,3.1919,3.1919,3.1919]}]]